Weather in Pisky

Ukraine / Poltava Region     49°18′10″N   33°40′19″E
temp.,
°C
wind,
m/s
gust,
m/s
humid.,
%
clouds,
%
prec.,
mm/h
press.,
hPa
HPBL,
m
15 may, sat
sat1500:00+13ssw38845 0.0 1009122
03:00+11s39875 0.0 1010163
06:00+11ssw38885 0.0 1011202
09:00+18ssw46660 0.0 1012587
12:00+21sw57532 0.7 10121864
15:00+20sw3560100 0.7 1011184
18:00+19wnw116779 0.0 101217
21:00+18ene1163100 0.0 101211
16 may, sun
sun1600:00+15ese117559 0.0 101311
03:00+14se22785 0.0 101322
06:00+13ssw11841 0.0 101310
09:00+19ese116440 0.0 1013403
12:00+23ese2346100 0.0 10131506
15:00+25e3444100 0.0 10112128
18:00+24ene35535 0.0 1009986
21:00+18ne466950 0.0 100972
17 may, mon
mon1700:00+16nne41077100 0.2 1008197
03:00+16nne4990100 0.9 1005147
06:00+15nne3891100 0.1 1004159
09:00+20ese3472100 0.1 1004437
12:00+23se4663100 0.1 1003997
15:00+25se796191 0.1 10011472
18:00+22s8117475 0.7 10011147
21:00+16sw512873 0.8 1004445
18 may, tue
tue1800:00+14sw51093100 0.0 1006357
03:00+12ssw3696100 0.0 1007144
06:00+13sse37955 0.4 1007239
09:00+18ssw577740 0.6 1007768
12:00+21ssw456277 1.1 10071309
15:00+23w4548100 1.4 10051862
18:00+14nw3596100 11.1 1007268
21:00+13wnw2395100 16.8 1008141
19 may, wed
wed1900:00+14w599575 0.0 1009395
03:00+12w5109348 0.0 1010409
06:00+11wsw389525 0.0 1011220
09:00+16w4573100 0.0 1012699
12:00+19w4557100 0.0 10121349
15:00+19wsw335099 0.0 10121364
18:00+20ese135392 0.0 10111227
21:00+14s2380100 0.1 101163